Regional Weather Roundup
Issued by NWS

Home | Current Version | Previous Version | Graphics & Text | Print | Product List | Glossary On
Versions: 1 2 3 4 5 6 7 8 9 10 11 12 13 14 15 16 17 18 19 20 21 22 23 24 25 26 27 28 29 30 31 32 33 34 35 36 37 38 39 40 41 42 43 44 45 46 47 48 49 50
000
ASUS43 KLMK 010702
RWRKY
KENTUCKY REGIONAL WEATHER ROUNDUP
NATIONAL WEATHER SERVICE LOUISVILLE KY
300 AM EDT MON SEP 01 2014

NOTE "FAIR" INDICATES FEW OR NO CLOUDS BELOW 12,000 FEET
WITH NO SIGNIFICANT WEATHER AND/OR OBSTRUCTIONS TO VISIBILITY.

KYZ001>023-026-027-061>063-070>075-010800-
WESTERN AND SOUTH CENTRAL KENTUCKY

CITY           SKY/WX    TMP DP  RH WIND       PRES   REMARKS
PADUCAH        CLEAR     77  73  87 VRB6      29.97R
HENDERSON      CLEAR     73  70  88 S8        29.97S
OWENSBORO      NOT AVBL
HOPKINSVILLE   CLEAR     74  74 100 S5        30.02S
BOWLING GREEN  PTCLDY    73  70  90 S5        30.03S
GLASGOW        CLEAR     72  72 100 CALM      30.04S
$$

KYZ024-025-028>034-038-045-046-053-010800-
NORTH CENTRAL KENTUCKY

CITY           SKY/WX    TMP DP  RH WIND       PRES   REMARKS
LOUISVILLE/SDF CLEAR     75  72  90 S6        30.00F
LOUISVILLE/LOU MOCLDY    74  72  93 CALM      30.01F
FORT KNOX      PTCLDY    71  71 100 S5        30.01S
$$

KYZ035>037-039>044-047>052-055>060-089>105-010800-
NORTHEAST KENTUCKY

CITY           SKY/WX    TMP DP  RH WIND       PRES   REMARKS
LEXINGTON      CLOUDY    74  71  91 SW7       30.05R
COVINGTON      CLOUDY    73  71  93 SW6       30.01S
FRANKFORT      CLOUDY    73  71  93 SW8       30.02S
$$

KYZ054-064>069-076>088-106>120-010800-
SOUTHEAST KENTUCKY

CITY           SKY/WX    TMP DP  RH WIND       PRES   REMARKS
JACKSON        MOCLDY    70  69  97 CALM      30.08S FOG
LONDON         PTCLDY    73  68  84 SW3       30.09S
SOMERSET       CLEAR     70  70 100 CALM      30.09R
MIDDLESBORO    MOCLDY    68  68 100 CALM      30.12S
MONTICELLO     SUNNY     73  71  93 SW6       30.09S
$$



USA.gov is the U.S. government's official web portal to all federal, state and local government web resources and services.